sat.trackr.live / text

‹ back to catalog

STARLINK-35471

NORAD 65864 · 2025-223L

PAYLOAD ACTIVE UNKNOWN

§ Identity

Operator
Country
US
Launch date
2025-10-03
Launch site
AFWTR
Launch vehicle
Mass (kg)
RCS (m²)

Purposes: comms

External: N2YO · Heavens-Above · Gunter

§ Orbital elements

Epoch: 2026-09-19T22:45:06.112224Z

Period
93.85 min
Inclination
53.1568°
Eccentricity
0.0001570
Mean motion
15.34419625 rev/d
Perigee alt
461.6 km
Apogee alt
463.7 km
Semi-major
6,840.8 km
B*
6.9108e-4
RAAN
110.0096°
Arg perigee
209.7387°
Mean anomaly
150.3527°
Rev number
5,397

§ Raw data

STARLINK-354711 65864U 25223L   26262.94798741  .00023059  00000+0  69108-3 0  99952 65864  53.1568 110.0096 0001570 209.7387 150.3527 15.34419625 53972

JSON: /api/v1/satellites/65864 · /tle

For live sub-satellite position, see the globe view (requires WebGL).

§ Visibility from observer

Set your observer location to see the next 7 days of passes ≥ 10°. The values pass through the URL so the page stays shareable.

No JS? Fill the form by hand. The geolocation button needs JavaScript.